Wind_Speed
15 16 17 19 20 21 22 24 26 27 29 30 31 32 34 35 36 37 37 39 40 41 44 45 45 45 44 46 46 44 43 43 42 42 41 40 39 38
15 16 17 18 19 21 22 24 25 27 29 30 31 32 33 35 36 37 38 39 41 41 42 44 46 46 46 45 47 47 45 45 44 43 43 42 41 41
16 16 17 18 19 21 22 24 25 27 28 30 31 32 34 35 36 37 38 40 41 42 43 44 45 47 47 47 47 48 48 47 47 46 45 44 43 43
16 17 18 19 20 22 23 24 25 26 28 30 32 33 34 35 36 37 38 40 42 43 43 44 45 47 48 48 49 49 49 49 49 49 48 47 46 45
18 19 19 20 21 22 23 24 25 27 28 30 32 34 35 36 37 38 38 39 41 43 44 45 46 47 48 49 49 50 50 50 50 51 51 50 49 48
19 20 20 21 22 22 23 24 25 27 28 29 31 33 35 36 37 38 39 40 41 43 45 46 47 48 49 50 50 51 52 52 52 52 52 51 51 50
20 21 21 22 22 23 24 24 25 26 28 29 30 31 33 35 36 37 39 40 42 43 45 46 47 48 49 51 52 52 53 53 54 54 53 53 53 52
21 22 22 23 23 24 24 25 25 26 28 29 30 30 31 33 35 36 38 40 42 43 45 46 47 48 49 51 51 52 53 54 55 55 55 54 54 54
23 23 24 24 24 25 25 25 26 27 28 29 29 30 31 32 34 35 37 40 41 43 45 46 47 48 49 50 52 53 53 54 55 56 56 55 55 54
24 25 25 25 26 26 26 26 27 27 28 28 29 30 31 32 33 34 36 38 40 41 44 45 47 48 49 50 51 52 53 54 55 55 56 56 56 56
26 26 26 27 27 27 27 28 28 28 28 29 29 30 31 32 33 34 35 36 37 39 41 42 44 46 47 49 50 51 52 53 54 55 55 56 56 57
27 27 27 28 28 28 28 28 28 29 29 29 29 30 31 32 32 33 34 35 36 37 39 40 41 44 45 46 48 49 50 52 53 54 55 55 56 56
28 28 28 29 29 29 29 29 28 28 28 29 29 30 30 31 31 32 33 33 34 35 37 38 39 41 43 43 45 47 49 50 51 53 53 54 55 55
29 29 30 30 30 30 30 30 29 29 29 29 29 29 29 30 30 31 31 32 32 33 35 36 37 39 41 42 43 45 47 49 50 51 51 52 53 54
30 31 31 31 31 31 31 30 30 30 29 29 29 29 29 29 29 29 29 30 31 31 32 33 34 36 38 39 40 42 44 46 48 49 50 51 51 52
32 32 32 32 32 32 31 31 31 31 30 30 30 29 29 29 29 28 29 29 30 30 30 31 32 34 35 36 38 39 41 42 45 46 48 49 50 51
34 34 34 34 33 33 33 32 32 31 31 31 30 30 29 29 28 27 27 28 28 28 28 29 31 32 33 34 35 36 38 39 41 44 45 47 48 49
36 36 35 35 35 34 34 34 33 32 32 31 30 29 29 28 28 27 27 26 26 26 27 28 29 30 31 33 33 34 36 37 38 41 42 44 45 46
37 37 36 36 36 35 34 34 33 32 32 31 30 29 28 28 27 27 26 26 26 25 26 27 28 29 30 30 31 32 33 35 36 38 40 41 42 44
39 38 37 36 36 35 34 34 32 32 31 30 29 28 28 27 26 26 25 25 25 25 25 26 27 28 28 29 29 29 31 32 33 35 37 38 39 41
40 39 39 38 37 36 35 34 33 31 31 30 29 28 28 27 26 25 24 24 24 24 25 25 25 26 26 26 27 27 29 30 32 33 35 36 37 38
41 41 40 38 37 35 35 34 33 32 31 30 29 28 28 27 26 25 24 24 23 24 24 24 25 25 25 25 26 27 27 29 30 31 33 35 35 36
42 41 40 39 37 36 35 34 33 33 31 30 29 28 27 26 25 24 24 24 23 24 24 24 24 24 24 24 25 25 26 27 28 29 31 32 33 34
Wind_Direction
291 285 280 276 274 272 271 269 266 265 264 261 259 258 256 255 254 253 252 250 249 247 245 245 244 244 244 244 242 240 240 240 238 237 235 235 236 237
298 292 288 283 279 276 275 273 270 267 266 264 262 259 258 257 256 254 253 252 250 250 248 246 246 245 245 244 243 241 241 239 239 238 238 237 236 237
305 299 295 291 286 283 280 276 273 269 267 266 265 263 260 259 258 256 254 253 251 250 249 248 247 246 245 245 244 243 242 241 239 238 238 238 238 237
310 304 300 297 292 288 284 280 276 273 271 268 267 266 264 262 260 258 256 255 252 251 250 250 249 247 247 246 245 244 242 241 240 239 238 238 239 239
311 307 303 300 297 292 288 284 280 277 274 272 269 267 266 264 262 259 257 257 255 253 251 251 250 249 247 246 246 245 244 243 242 240 240 240 240 240
313 310 307 304 300 296 292 289 285 281 278 276 273 269 266 265 264 262 260 258 257 254 253 252 251 250 249 247 246 245 244 243 243 242 240 240 240 240
315 312 310 308 305 301 296 293 289 286 283 280 276 272 268 266 264 263 261 260 258 256 254 253 252 250 249 248 246 245 243 242 242 243 242 241 240 240
317 313 311 309 307 305 302 298 294 291 288 284 279 275 272 270 267 265 264 262 260 258 256 254 253 252 250 249 247 245 245 243 242 243 243 243 242 241
316 314 313 310 309 307 305 301 298 295 291 287 283 279 275 273 271 269 266 263 261 259 257 256 254 252 251 250 248 246 245 244 243 242 242 243 243 242
317 315 314 312 310 308 306 302 300 298 295 291 286 282 278 276 274 272 270 267 264 262 260 258 256 254 251 250 249 247 246 245 244 243 242 242 243 243
316 315 314 313 312 310 307 304 302 299 296 293 290 286 282 280 277 275 273 269 266 264 262 259 256 255 253 251 249 248 246 245 244 243 243 242 242 242
315 316 315 314 313 311 309 307 304 302 299 296 292 290 287 284 280 278 275 272 268 265 262 260 257 255 254 252 250 249 247 246 245 243 243 242 241 241
314 315 315 315 314 312 311 309 306 304 302 299 296 293 290 287 283 280 278 274 270 267 263 261 258 256 255 252 251 250 248 246 246 244 243 242 240 239
313 313 314 314 314 313 311 309 307 305 303 302 299 296 293 290 286 284 281 277 273 270 266 262 259 257 255 253 252 250 248 247 246 245 243 242 240 239
312 312 312 313 313 312 311 309 308 306 304 304 302 299 295 292 289 285 281 278 275 273 269 264 260 257 255 254 252 250 248 246 245 244 242 241 240 239
310 310 310 311 312 311 309 308 307 306 305 304 302 300 298 294 291 287 282 278 275 273 269 265 262 259 256 254 252 250 249 247 245 243 242 241 240 239
309 309 309 309 309 309 309 307 305 304 304 303 301 300 299 296 292 288 284 280 276 273 269 266 264 261 257 254 253 251 249 247 244 243 242 240 239 239
307 307 308 308 308 308 307 306 305 303 303 302 301 300 299 297 294 289 285 282 278 272 269 267 265 262 258 256 255 252 250 248 245 242 240 240 238 238
306 306 306 306 306 306 305 305 304 303 302 301 300 299 298 296 294 290 286 281 277 274 271 268 265 262 260 258 256 253 251 248 245 243 240 240 238 237
305 305 305 305 305 304 304 302 301 302 301 300 299 298 296 295 294 291 287 282 278 276 272 269 266 263 262 259 255 252 250 248 245 243 241 240 239 237
302 302 302 302 302 302 302 300 299 299 299 299 297 296 295 294 293 291 289 284 278 276 273 271 268 263 263 261 255 252 249 247 246 245 243 241 238 237
301 300 300 300 299 298 298 298 297 296 296 296 295 294 294 294 293 291 288 285 281 277 275 272 268 264 263 261 258 254 250 248 247 246 244 242 240 238
299 299 299 298 297 295 295 296 295 294 293 292 293 293 292 292 291 289 288 285 281 280 278 274 268 264 263 262 259 256 252 249 247 245 243 242 241 239
Height
5821 5820 5819 5819 5818 5818 5817 5817 5817 5817 5817 5818 5818 5819 5821 5822 5823 5825 5827 5829 5831 5834 5836 5839 5843 5846 5849 5853 5856 5859 5863 5867 5871 5874 5878 5882 5885 5889
5816 5815 5814 5813 5812 5812 5811 5810 5810 5810 5810 5810 5810 5811 5812 5813 5814 5816 5818 5820 5822 5824 5826 5829 5832 5836 5839 5842 5846 5849 5853 5857 5861 5865 5869 5873 5876 5880
5812 5810 5809 5807 5806 5805 5804 5803 5803 5802 5802 5802 5801 5802 5803 5803 5805 5806 5808 5810 5812 5814 5816 5819 5822 5825 5828 5832 5835 5839 5843 5846 5851 5855 5859 5863 5867 5871
5808 5806 5804 5802 5800 5799 5797 5796 5795 5795 5794 5794 5793 5793 5793 5794 5795 5796 5797 5799 5801 5804 5806 5808 5811 5814 5817 5820 5824 5828 5832 5836 5840 5844 5848 5853 5857 5861
5803 5801 5798 5796 5794 5792 5790 5789 5788 5787 5786 5785 5784 5784 5783 5784 5784 5785 5787 5788 5790 5792 5795 5797 5800 5802 5805 5809 5812 5816 5820 5825 5829 5833 5837 5841 5846 5850
5798 5795 5793 5790 5788 5786 5784 5782 5780 5779 5777 5776 5775 5774 5773 5773 5774 5775 5776 5777 5779 5781 5783 5785 5788 5790 5793 5797 5800 5804 5808 5812 5816 5820 5825 5830 5834 5839
5793 5790 5787 5785 5782 5779 5777 5775 5772 5770 5768 5767 5765 5764 5764 5763 5763 5764 5764 5765 5767 5768 5770 5773 5775 5778 5780 5783 5786 5790 5795 5799 5804 5808 5812 5817 5822 5827
5788 5785 5782 5779 5776 5773 5770 5767 5765 5762 5760 5758 5756 5755 5754 5753 5753 5753 5753 5754 5755 5756 5757 5759 5761 5764 5766 5770 5773 5777 5781 5785 5790 5795 5799 5804 5809 5814
5783 5779 5776 5773 5769 5766 5763 5760 5757 5754 5751 5749 5747 5745 5744 5743 5742 5742 5741 5741 5742 5743 5744 5746 5747 5750 5752 5755 5759 5763 5767 5771 5776 5781 5786 5791 5796 5801
5778 5774 5770 5766 5763 5759 5755 5752 5749 5746 5743 5740 5738 5735 5734 5732 5731 5730 5729 5729 5730 5730 5730 5732 5734 5736 5738 5741 5745 5749 5753 5757 5762 5766 5771 5777 5782 5787
5772 5768 5764 5760 5756 5752 5748 5745 5741 5738 5734 5732 5729 5726 5724 5722 5720 5719 5718 5718 5718 5717 5717 5718 5720 5721 5724 5727 5730 5734 5738 5743 5748 5752 5757 5763 5767 5772
5766 5761 5757 5753 5749 5745 5741 5737 5733 5729 5726 5723 5720 5717 5714 5712 5710 5708 5707 5706 5706 5706 5705 5706 5707 5708 5711 5714 5717 5720 5724 5729 5733 5738 5743 5748 5753 5758
5758 5754 5751 5746 5742 5738 5733 5729 5725 5721 5717 5714 5711 5708 5705 5702 5700 5698 5697 5695 5695 5694 5694 5694 5695 5696 5698 5702 5704 5707 5710 5715 5719 5724 5729 5734 5739 5744
5751 5747 5743 5739 5735 5730 5726 5722 5717 5713 5709 5706 5702 5699 5695 5693 5690 5688 5686 5685 5683 5683 5682 5682 5683 5684 5686 5689 5692 5694 5697 5701 5705 5710 5715 5720 5725 5730
5744 5740 5736 5731 5727 5722 5718 5714 5709 5705 5701 5698 5694 5690 5687 5684 5681 5679 5677 5675 5673 5672 5672 5672 5672 5673 5675 5677 5680 5682 5685 5688 5692 5697 5702 5706 5712 5717
5736 5732 5728 5723 5719 5714 5710 5705 5701 5697 5693 5689 5686 5682 5678 5675 5672 5670 5667 5666 5664 5663 5662 5662 5662 5663 5665 5666 5668 5671 5673 5676 5680 5684 5688 5693 5699 5704
5727 5723 5719 5715 5710 5706 5701 5697 5693 5689 5685 5681 5677 5674 5670 5667 5664 5661 5659 5657 5655 5655 5654 5653 5653 5653 5655 5656 5658 5660 5662 5665 5668 5671 5676 5681 5686 5692
5718 5714 5710 5705 5701 5697 5692 5688 5684 5680 5676 5673 5669 5665 5662 5659 5656 5653 5651 5649 5647 5646 5645 5645 5644 5645 5646 5647 5649 5650 5652 5654 5657 5660 5664 5669 5674 5680
5708 5704 5700 5696 5691 5687 5683 5679 5675 5671 5668 5664 5661 5657 5654 5651 5648 5645 5643 5641 5639 5638 5637 5637 5636 5636 5637 5638 5639 5640 5642 5644 5647 5650 5654 5658 5663 5668
5698 5694 5690 5686 5682 5678 5674 5670 5666 5662 5659 5655 5652 5649 5646 5643 5640 5638 5635 5633 5632 5631 5630 5629 5628 5628 5629 5629 5630 5632 5633 5635 5637 5640 5643 5647 5652 5657
5687 5683 5679 5676 5672 5668 5664 5660 5657 5653 5650 5647 5644 5641 5638 5635 5633 5630 5628 5626 5624 5623 5622 5621 5621 5620 5620 5621 5622 5623 5625 5626 5628 5631 5634 5637 5641 5646
5676 5672 5668 5664 5661 5658 5654 5651 5647 5644 5641 5638 5635 5632 5630 5627 5625 5623 5621 5619 5617 5616 5615 5614 5613 5613 5613 5613 5614 5615 5617 5618 5620 5622 5625 5628 5631 5636
5663 5659 5656 5652 5650 5647 5644 5641 5637 5634 5632 5629 5626 5624 5622 5619 5617 5615 5613 5611 5610 5608 5607 5606 5605 5605 5605 5606 5606 5607 5609 5610 5612 5614 5617 5620 5623 5627